This demonstration page uses our WeatherBlox Daily Observations layout. Learn more.

Left ArrowRight Arrow

39.29038, -76.61219

Hourly Observations for March 27, 2018

Temp ( °F °C ) Dew Point ( °F °C ) Humidity (%) Winds ( mph kmh ) Pressure ( in mb ) Visibility ( mi km ) Precip ( " mm )
12:54 am 00:54 undefined 38 3.3 28 -2.2 68 68 undefined N/A 30.65 1038 N/A 0.00 0.00
1:54 am 01:54 undefined 38 3.3 28 -2.2 68 68 undefined N/A 30.64 1038 N/A 0.00 0.00
2:54 am 02:54 undefined 37 2.8 28 -2.2 70 70 undefined N/A 30.63 1037 N/A 0.00 0.00
3:54 am 03:54 undefined 37 2.8 28 -2.2 70 70 undefined N/A 30.60 1036 N/A 0.00 0.00
4:54 am 04:54 undefined 37 2.8 28 -2.2 70 70 undefined N/A 30.58 1036 N/A 0.00 0.00
5:54 am 05:54 undefined 37 2.8 28 -2.2 70 70 undefined N/A 30.57 1035 N/A 0.00 0.00
6:54 am 06:54 undefined 37 2.8 29 -1.7 73 73 undefined N/A 30.56 1035 N/A 0.00 0.00
7:54 am 07:54 undefined 37 2.8 30 -1.1 76 76 undefined N/A 30.56 1035 N/A 0.00 0.00
8:54 am 08:54 undefined 39 3.9 31 -0.6 73 73 undefined N/A 30.57 1035 N/A 0.00 0.00
9:54 am 09:54 undefined 40 4.4 32 0 73 73 undefined N/A 30.57 1035 N/A 0.00 0.00
10:54 am 10:54 undefined 43 6.1 31 -0.6 63 63 undefined N/A 30.56 1035 N/A 0.00 0.00
11:54 am 11:54 undefined 42 5.6 30 -1.1 62 62 undefined N/A 30.53 1034 N/A 0.00 0.00
12:54 pm 12:54 undefined 44 6.7 30 -1.1 58 58 undefined N/A 30.50 1033 N/A 0.00 0.00
1:54 pm 13:54 undefined 44 6.7 29 -1.7 55 55 undefined N/A 30.46 1032 N/A 0.00 0.00
2:54 pm 14:54 undefined 43 6.1 29 -1.7 58 58 undefined N/A 30.41 1030 N/A 0.00 0.00
3:54 pm 15:54 undefined 43 6.1 28 -2.2 56 56 undefined N/A 30.37 1029 N/A 0.00 0.00
4:54 pm 16:54 undefined 43 6.1 32 0 65 65 undefined N/A 30.34 1028 N/A 0.00 0.00
5:54 pm 17:54 undefined 44 6.7 31 -0.6 60 60 undefined N/A 30.31 1026 N/A 0.00 0.00
6:54 pm 18:54 undefined 43 6.1 30 -1.1 60 60 undefined N/A 30.29 1026 N/A 0.00 0.00
7:54 pm 19:54 undefined 44 6.7 31 -0.6 60 60 undefined N/A 30.28 1026 N/A 0.00 0.00
8:54 pm 20:54 undefined 44 6.7 31 -0.6 60 60 undefined N/A 30.27 1025 N/A 0.00 0.00
9:54 pm 21:54 undefined 44 6.7 32 0 63 63 undefined N/A 30.25 1024 N/A 0.00 0.00
10:54 pm 22:54 undefined 44 6.7 34 1.1 68 68 undefined N/A 30.23 1024 N/A 0.00 0.00
11:54 pm 23:54 undefined 44 6.7 35 1.7 71 71 undefined N/A 30.21 1023 N/A 0.00 0.00

Powered by AerisWeather